When you browse on this site, cookies collect data to enhance your experience and personalize the content and advertising you see.
Visit our Privacy Policy to learn more. By continuing to use the site, you agree to this use of cookies and data.
  • In Österreich
  • Länderverzeichnis
  • Für 7 Tage
  • Wassertemperatur
  • Wetterkarte
  • News
  • Widgets
  • user-avatar
    Anmelden

    Stündliche Wetter Caracas

    Heute, 20 Januar, Montag

    Zeit Temperatur Niederschläge Wind Luftdruck Luftfeuchtigkeit
    00:00 +16°C° 0 mm 3 m/S 649 mmHg 94%
    01:00 +16°C° 0 mm 2 m/S 649 mmHg 94%
    02:00 +16°C° 0 mm 2 m/S 649 mmHg 94%
    03:00 +16°C° 0 mm 2 m/S 649 mmHg 94%
    04:00 +16°C° 0 mm 2 m/S 649 mmHg 94%
    05:00 +16°C° 0 mm 2 m/S 649 mmHg 93%
    06:00 +17°C° 0 mm 2 m/S 649 mmHg 92%
    07:00 +17°C° 0 mm 2 m/S 649 mmHg 91%
    08:00 +17°C° 0 mm 2 m/S 650 mmHg 90%
    09:00 +19°C° 0 mm 3 m/S 650 mmHg 81%
    10:00 +22°C° 0 mm 3 m/S 651 mmHg 71%
    11:00 +25°C° 0 mm 3 m/S 652 mmHg 61%
    12:00 +25°C° 0.1 mm 3 m/S 651 mmHg 62%
    13:00 +25°C° 0.1 mm 3 m/S 651 mmHg 63%
    14:00 +25°C° 0.1 mm 3 m/S 650 mmHg 64%
    15:00 +24°C° 0.2 mm 3 m/S 649 mmHg 68%
    16:00 +22°C° 0.2 mm 3 m/S 649 mmHg 72%
    17:00 +22°C° 0.2 mm 3 m/S 648 mmHg 77%
    18:00 +20°C° 0.1 mm 3 m/S 648 mmHg 83%
    19:00 +19°C° 0.1 mm 3 m/S 648 mmHg 88%
    20:00 +18°C° 0.1 mm 3 m/S 648 mmHg 94%
    21:00 +17°C° 0 mm 3 m/S 648 mmHg 94%
    22:00 +17°C° 0 mm 3 m/S 648 mmHg 95%
    23:00 +17°C° 0 mm 3 m/S 649 mmHg 95%

    Morgen, 21 Januar, Dienstag

    Zeit Temperatur Niederschläge Wind Luftdruck Luftfeuchtigkeit
    00:00 +17°C° 0 mm 2 m/S 648 mmHg 95%
    01:00 +17°C° 0 mm 2 m/S 648 mmHg 95%
    02:00 +17°C° 0 mm 2 m/S 648 mmHg 95%
    03:00 +17°C° 0 mm 2 m/S 648 mmHg 95%
    04:00 +17°C° 0 mm 2 m/S 648 mmHg 95%
    05:00 +17°C° 0 mm 2 m/S 648 mmHg 95%
    06:00 +17°C° 0 mm 2 m/S 648 mmHg 94%
    07:00 +17°C° 0 mm 2 m/S 649 mmHg 93%
    08:00 +18°C° 0 mm 2 m/S 649 mmHg 92%
    09:00 +19°C° 0.1 mm 2 m/S 650 mmHg 85%
    10:00 +21°C° 0.1 mm 2 m/S 650 mmHg 77%
    11:00 +24°C° 0.1 mm 2 m/S 651 mmHg 70%
    12:00 +24°C° 0.6 mm 2 m/S 650 mmHg 72%
    13:00 +22°C° 0.6 mm 3 m/S 649 mmHg 75%
    14:00 +22°C° 0.6 mm 3 m/S 649 mmHg 78%
    15:00 +22°C° 0.5 mm 3 m/S 648 mmHg 80%
    16:00 +21°C° 0.5 mm 3 m/S 648 mmHg 82%
    17:00 +21°C° 0.5 mm 3 m/S 647 mmHg 84%
    18:00 +20°C° 0 mm 2 m/S 647 mmHg 87%
    19:00 +19°C° 0 mm 2 m/S 647 mmHg 90%
    20:00 +17°C° 0 mm 2 m/S 647 mmHg 93%
    21:00 +17°C° 0 mm 2 m/S 648 mmHg 93%
    22:00 +17°C° 0 mm 2 m/S 648 mmHg 92%
    23:00 +17°C° 0 mm 2 m/S 648 mmHg 92%

    übermorgen, 22 Januar, Mittwoch

    Zeit Temperatur Niederschläge Wind Luftdruck Luftfeuchtigkeit
    00:00 +16°C° 0 mm 2 m/S 648 mmHg 92%
    01:00 +16°C° 0 mm 2 m/S 647 mmHg 92%
    02:00 +16°C° 0 mm 2 m/S 647 mmHg 92%
    03:00 +16°C° 0 mm 2 m/S 647 mmHg 92%
    04:00 +16°C° 0 mm 2 m/S 647 mmHg 93%
    05:00 +16°C° 0 mm 2 m/S 647 mmHg 93%
    06:00 +16°C° 0 mm 2 m/S 647 mmHg 92%
    07:00 +18°C° 0 mm 1 m/S 648 mmHg 91%
    08:00 +18°C° 0 mm 1 m/S 648 mmHg 90%
    09:00 +19°C° 0 mm 2 m/S 649 mmHg 82%
    10:00 +21°C° 0 mm 2 m/S 650 mmHg 73%
    11:00 +24°C° 0 mm 2 m/S 650 mmHg 65%
    12:00 +25°C° 0.1 mm 2 m/S 650 mmHg 65%
    13:00 +25°C° 0.1 mm 2 m/S 649 mmHg 65%
    14:00 +25°C° 0.1 mm 2 m/S 649 mmHg 65%
    15:00 +25°C° 0.1 mm 2 m/S 648 mmHg 68%
    16:00 +24°C° 0.1 mm 2 m/S 647 mmHg 71%
    17:00 +23°C° 0.1 mm 2 m/S 647 mmHg 73%
    18:00 +21°C° 0 mm 2 m/S 647 mmHg 79%
    19:00 +19°C° 0 mm 2 m/S 647 mmHg 84%
    20:00 +18°C° 0 mm 2 m/S 647 mmHg 89%
    21:00 +19°C° 0 mm 1 m/S 647 mmHg 91%
    22:00 +18°C° 0 mm 1 m/S 647 mmHg 92%
    23:00 +18°C° 0 mm 1 m/S 648 mmHg 93%

    23 Januar, Donnerstag

    Zeit Temperatur Niederschläge Wind Luftdruck Luftfeuchtigkeit
    00:00 +18°C° 0 mm 1 m/S 647 mmHg 92%
    01:00 +16°C° 0 mm 1 m/S 647 mmHg 90%
    02:00 +16°C° 0 mm 1 m/S 647 mmHg 89%
    03:00 +16°C° 0 mm 1 m/S 646 mmHg 88%
    04:00 +15°C° 0 mm 1 m/S 646 mmHg 88%
    05:00 +15°C° 0 mm 1 m/S 646 mmHg 88%
    06:00 +16°C° 0 mm 1 m/S 647 mmHg 86%
    07:00 +16°C° 0 mm 1 m/S 647 mmHg 83%
    08:00 +16°C° 0 mm 0 m/S 648 mmHg 81%
    09:00 +20°C° 0 mm 1 m/S 649 mmHg 72%
    10:00 +22°C° 0 mm 1 m/S 649 mmHg 63%
    11:00 +24°C° 0 mm 1 m/S 650 mmHg 55%
    12:00 +25°C° 0 mm 1 m/S 650 mmHg 54%
    13:00 +25°C° 0 mm 1 m/S 649 mmHg 54%
    14:00 +26°C° 0 mm 1 m/S 649 mmHg 54%
    15:00 +25°C° 0 mm 2 m/S 648 mmHg 59%
    16:00 +24°C° 0 mm 2 m/S 648 mmHg 64%
    17:00 +21°C° 0 mm 2 m/S 647 mmHg 69%
    18:00 +20°C° 0 mm 2 m/S 647 mmHg 76%
    19:00 +19°C° 0 mm 1 m/S 647 mmHg 82%
    20:00 +18°C° 0 mm 1 m/S 647 mmHg 89%
    21:00 +16°C° 0 mm 1 m/S 647 mmHg 88%
    22:00 +15°C° 0 mm 1 m/S 647 mmHg 87%
    23:00 +15°C° 0 mm 1 m/S 647 mmHg 87%

    24 Januar, Freitag

    Zeit Temperatur Niederschläge Wind Luftdruck Luftfeuchtigkeit
    00:00 +14°C° 0 mm 1 m/S 647 mmHg 86%
    01:00 +14°C° 0 mm 1 m/S 647 mmHg 86%
    02:00 +14°C° 0 mm 1 m/S 646 mmHg 86%
    03:00 +14°C° 0 mm 1 m/S 646 mmHg 85%
    04:00 +13°C° 0 mm 1 m/S 646 mmHg 84%
    05:00 +13°C° 0 mm 1 m/S 646 mmHg 84%
    06:00 +14°C° 0 mm 1 m/S 647 mmHg 82%
    07:00 +15°C° 0 mm 1 m/S 648 mmHg 80%
    08:00 +16°C° 0 mm 1 m/S 649 mmHg 78%
    09:00 +19°C° 0 mm 1 m/S 649 mmHg 70%
    10:00 +21°C° 0 mm 1 m/S 650 mmHg 62%
    11:00 +24°C° 0 mm 2 m/S 651 mmHg 55%
    12:00 +24°C° 0 mm 2 m/S 651 mmHg 55%
    13:00 +25°C° 0 mm 2 m/S 651 mmHg 56%
    14:00 +25°C° 0 mm 2 m/S 650 mmHg 56%
    15:00 +24°C° 0 mm 2 m/S 650 mmHg 61%
    16:00 +24°C° 0 mm 2 m/S 649 mmHg 65%
    17:00 +23°C° 0 mm 2 m/S 648 mmHg 70%
    18:00 +20°C° 0 mm 2 m/S 648 mmHg 76%
    19:00 +18°C° 0 mm 2 m/S 648 mmHg 83%
    20:00 +16°C° 0 mm 1 m/S 648 mmHg 89%
    21:00 +16°C° 0 mm 1 m/S 648 mmHg 89%
    22:00 +15°C° 0 mm 1 m/S 649 mmHg 89%
    23:00 +15°C° 0 mm 1 m/S 649 mmHg 90%

    25 Januar, Samstag

    Zeit Temperatur Niederschläge Wind Luftdruck Luftfeuchtigkeit
    00:00 +15°C° 0 mm 1 m/S 649 mmHg 91%
    01:00 +15°C° 0 mm 1 m/S 648 mmHg 91%
    02:00 +15°C° 0 mm 1 m/S 648 mmHg 92%
    03:00 +15°C° 0 mm 1 m/S 648 mmHg 93%
    04:00 +15°C° 0 mm 1 m/S 648 mmHg 93%
    05:00 +15°C° 0 mm 1 m/S 648 mmHg 94%
    06:00 +16°C° 0 mm 1 m/S 648 mmHg 92%
    07:00 +16°C° 0 mm 1 m/S 649 mmHg 90%
    08:00 +18°C° 0 mm 1 m/S 650 mmHg 89%
    09:00 +19°C° 0 mm 1 m/S 650 mmHg 82%
    10:00 +20°C° 0 mm 2 m/S 651 mmHg 75%
    11:00 +23°C° 0 mm 2 m/S 652 mmHg 69%
    12:00 +23°C° 0.4 mm 2 m/S 651 mmHg 69%
    13:00 +22°C° 0.4 mm 3 m/S 651 mmHg 69%
    14:00 +22°C° 0.4 mm 3 m/S 650 mmHg 69%
    15:00 +22°C° 0.2 mm 3 m/S 650 mmHg 71%
    16:00 +21°C° 0.2 mm 3 m/S 649 mmHg 74%
    17:00 +21°C° 0.2 mm 3 m/S 649 mmHg 76%
    18:00 +19°C° 0.1 mm 2 m/S 649 mmHg 82%
    19:00 +18°C° 0.1 mm 2 m/S 649 mmHg 87%
    20:00 +17°C° 0.1 mm 2 m/S 649 mmHg 93%
    21:00 +17°C° 0 mm 2 m/S 649 mmHg 93%
    22:00 +16°C° 0 mm 2 m/S 650 mmHg 93%
    23:00 +16°C° 0 mm 1 m/S 650 mmHg 93%
    Mehr zeigen